Погода в Начале

Россия / Воронежская область     50°13′43″N   39°34′29″E
темп.,
°C
ветер,
м/с
пор.,
м/с
влажн.,
%
обл.,
%
осадки,
мм/ч
давл.,
гПа
погр.,
м
13 апреля, вт
вт1300:00+13в412627 0.0 1023273
03:00+11в4106980 0.0 1024184
06:00+10в41168100 0.0 1024221
09:00+15вюв61146100 0.0 1024508
12:00+19юв812343 0.0 10231316
15:00+20юв8133731 0.0 10222214
18:00+19ююв61045100 0.0 1021487
21:00+14ююв1166100 0.0 102211
14 апреля, ср
ср1400:00+12в356388 0.0 102187
03:00+10в34599 0.0 102065
06:00+9в386389 0.0 1020144
09:00+14юв584185 0.0 1019523
12:00+18юв463173 0.0 10181184
15:00+19ююв6827100 0.0 10172572
18:00+18юв4737100 0.0 1016327
21:00+15юз2350100 0.0 101663
15 апреля, чт
чт1500:00+14св2254100 0.0 101625
03:00+12с2256100 0.0 101522
06:00+12всв2263100 0.0 101523
09:00+15в3454100 0.0 1015291
12:00+16ю3547100 0.0 10141928
15:00+18ююв134382 0.0 10131654
18:00+16ююз465539 0.0 1013321
21:00
16 апреля, пт
пт1600:00+11зюз377399 0.0 1013227
03:00+10зюз2581100 0.0 1013211
06:00+10зюз2382100 0.0 1014107
09:00+11юз348089 0.0 1015492
12:00+16ююз344819 0.1 10151696
15:00+17юз443893 0.1 10142303
18:00+14юз3652100 0.0 1015439
21:00+14сз3551100 0.0 1015100
17 апреля, сб
сб1700:00+9з2466100 0.0 1017116
03:00+8зсз1385100 2.9 1018137
06:00+8сз1285100 2.3 1018101
09:00+9ссз2377100 3.5 1018442
12:00+10сз4568100 0.6 1019892
15:00+11зсз5768100 0.6 1018774
18:00+10сз4669100 0.0 1019770
21:00+8з238198 0.0 101994